This is the latest recevied weather packets stored in our database for station/object KJ4EBE. If no packets are shown the sender has not sent any weather packets the latest 10 day(s).
| Time | Temp. | Humidity | Pressure | Rain* | Wind** | Luminosity | Snow |
|---|---|---|---|---|---|---|---|
| 1777941009 | 26.11° C | 67% | 1007.6 hPa | 0 mm | - | 34 W/m² | - |
| 1777940704 | 26.11° C | 66% | 1007.5 hPa | 0 mm | - | 51 W/m² | - |
| 1777940403 | 26.11° C | 66% | 1007.4 hPa | 0 mm | - | 52 W/m² | - |
| 1777940100 | 26.11° C | 65% | 1007.5 hPa | 0 mm | - | 49 W/m² | - |
| 1777939796 | 26.11° C | 65% | 1007.8 hPa | 0 mm | - | 54 W/m² | - |
| 1777939495 | 26.67° C | 64% | 1007.4 hPa | 0 mm | - | 48 W/m² | - |
| 1777939191 | 26.67° C | 63% | 1007.2 hPa | 0 mm | - | 54 W/m² | - |
| 1777938888 | 26.67° C | 63% | 1007.4 hPa | 0 mm | - | 54 W/m² | - |
| 1777938585 | 27.22° C | 62% | 1007.6 hPa | 0 mm | - | 44 W/m² | - |
| 1777938282 | 27.78° C | 61% | 1007.6 hPa | 0 mm | - | 55 W/m² | - |
| 1777937978 | 27.78° C | 60% | 1007.6 hPa | 0 mm | - | 66 W/m² | - |
| 1777937674 | 27.78° C | 59% | 1007.6 hPa | 0 mm | - | 87 W/m² | - |
| 1777937371 | 28.33° C | 58% | 1007.4 hPa | 0 mm | - | 147 W/m² | - |
| 1777937068 | 27.78° C | 60% | 1007.6 hPa | 0 mm | - | 104 W/m² | - |
| 1777936766 | 28.33° C | 58% | 1007.7 hPa | 0 mm | - | 132 W/m² | - |
| 1777936462 | 29.44° C | 57% | 1007.5 hPa | 0 mm | - | 162 W/m² | - |
| 1777936158 | 28.89° C | 57% | 1007.7 hPa | 0 mm | - | 184 W/m² | - |
| 1777935855 | 29.44° C | 57% | 1007.6 hPa | 0 mm | - | 196 W/m² | - |
| 1777935554 | 28.89° C | 57% | 1007.6 hPa | 0 mm | - | 212 W/m² | - |
| 1777935250 | 28.89° C | 58% | 1007.7 hPa | 0 mm | - | 228 W/m² | - |
| 1777934948 | 28.89° C | 58% | 1007.7 hPa | 0 mm | - | 230 W/m² | - |
| 1777934644 | 28.89° C | 57% | 1007.6 hPa | 0 mm | - | 261 W/m² | - |
| 1777934342 | 28.89° C | 56% | 1007.7 hPa | 0 mm | - | 290 W/m² | - |
| 1777934037 | 28.89° C | 57% | 1007.6 hPa | 0 mm | - | 316 W/m² | - |
| 1777933733 | 28.89° C | 58% | 1008.2 hPa | 0 mm | - | 349 W/m² | - |
* Rain latest hour (hover to see other rain measurements)
** Current wind speed in m/s (hover to see current wind gust speed)